Year,Month,Day,Hour,Minute,Value (Times are PST for temperature in C)
2015,02,25,00,00,6.10
2015,02,25,00,01,6.00
2015,02,25,00,02,6.00
2015,02,25,00,03,6.00
2015,02,25,00,04,6.00
2015,02,25,00,05,5.90
2015,02,25,00,06,5.80
2015,02,25,00,07,5.70
2015,02,25,00,08,5.70
2015,02,25,00,09,5.70
2015,02,25,00,10,5.60
2015,02,25,00,11,5.50
2015,02,25,00,12,5.40
2015,02,25,00,13,5.30
2015,02,25,00,14,5.20
2015,02,25,00,15,5.20
2015,02,25,00,16,5.10
2015,02,25,00,17,5.10
2015,02,25,00,18,5.10
2015,02,25,00,19,5.00
2015,02,25,00,20,4.90
2015,02,25,00,21,4.90
2015,02,25,00,22,4.90
2015,02,25,00,23,4.90
2015,02,25,00,24,4.90
2015,02,25,00,25,4.90
2015,02,25,00,26,4.90
2015,02,25,00,27,5.00
2015,02,25,00,28,5.10
2015,02,25,00,29,5.10
2015,02,25,00,30,5.10
2015,02,25,00,31,5.10
2015,02,25,00,32,5.30
2015,02,25,00,33,5.40
2015,02,25,00,34,5.60
2015,02,25,00,35,5.70
2015,02,25,00,36,5.80
2015,02,25,00,37,6.00
2015,02,25,00,38,6.10
2015,02,25,00,39,6.20
2015,02,25,00,40,6.20
2015,02,25,00,41,6.20
2015,02,25,00,42,6.20
2015,02,25,00,43,6.20
2015,02,25,00,44,6.10
2015,02,25,00,45,6.00
2015,02,25,00,46,5.90
2015,02,25,00,47,5.80
2015,02,25,00,48,5.70
2015,02,25,00,49,5.60
2015,02,25,00,50,5.50
2015,02,25,00,51,5.40
2015,02,25,00,52,5.30
2015,02,25,00,53,5.20
2015,02,25,00,54,5.10
2015,02,25,00,55,5.10
2015,02,25,00,56,5.00
2015,02,25,00,57,4.90
2015,02,25,00,58,4.90
2015,02,25,00,59,4.90
2015,02,25,01,00,4.80
2015,02,25,01,01,4.70
2015,02,25,01,02,4.60
2015,02,25,01,03,4.60
2015,02,25,01,04,4.50
2015,02,25,01,05,4.50
2015,02,25,01,06,4.50
2015,02,25,01,07,4.40
2015,02,25,01,08,4.40
2015,02,25,01,09,4.40
2015,02,25,01,10,4.50
2015,02,25,01,11,4.40
2015,02,25,01,12,4.40
2015,02,25,01,13,4.40
2015,02,25,01,14,4.40
2015,02,25,01,15,4.30
2015,02,25,01,16,4.30
2015,02,25,01,17,4.20
2015,02,25,01,18,4.20
2015,02,25,01,19,4.20
2015,02,25,01,20,4.20
2015,02,25,01,21,4.20
2015,02,25,01,22,4.10
2015,02,25,01,23,4.10
2015,02,25,01,24,4.10
2015,02,25,01,25,4.10
2015,02,25,01,26,4.10
2015,02,25,01,27,4.10
2015,02,25,01,28,4.00
2015,02,25,01,29,4.10
2015,02,25,01,30,4.10
2015,02,25,01,31,4.10
2015,02,25,01,32,4.10
2015,02,25,01,33,4.10
2015,02,25,01,34,4.20
2015,02,25,01,35,4.20
2015,02,25,01,36,4.20
2015,02,25,01,37,4.20
2015,02,25,01,38,4.20
2015,02,25,01,39,4.20
2015,02,25,01,40,4.20
2015,02,25,01,41,4.20
2015,02,25,01,42,4.20
2015,02,25,01,43,4.20
2015,02,25,01,44,4.20
2015,02,25,01,45,4.20
2015,02,25,01,46,4.20
2015,02,25,01,47,4.20
2015,02,25,01,48,4.20
2015,02,25,01,49,4.20
2015,02,25,01,50,4.20
2015,02,25,01,51,4.20
2015,02,25,01,52,4.20
2015,02,25,01,53,4.10
2015,02,25,01,54,4.10
2015,02,25,01,55,4.20
2015,02,25,01,56,4.20
2015,02,25,01,57,4.20
2015,02,25,01,58,4.20
2015,02,25,01,59,4.20
2015,02,25,02,00,4.30
2015,02,25,02,01,4.40
2015,02,25,02,02,4.50
2015,02,25,02,03,4.60
2015,02,25,02,04,4.60
2015,02,25,02,05,4.70
2015,02,25,02,06,4.80
2015,02,25,02,07,4.80
2015,02,25,02,08,4.90
2015,02,25,02,09,4.90
2015,02,25,02,10,5.00
2015,02,25,02,11,5.10
2015,02,25,02,12,5.10
2015,02,25,02,13,5.10
2015,02,25,02,14,5.10
2015,02,25,02,15,5.10
2015,02,25,02,16,5.20
2015,02,25,02,17,5.20
2015,02,25,02,18,5.30
2015,02,25,02,19,5.30
2015,02,25,02,20,5.30
2015,02,25,02,21,5.30
2015,02,25,02,22,5.30
2015,02,25,02,23,5.30
2015,02,25,02,24,5.30
2015,02,25,02,25,5.30
2015,02,25,02,26,5.30
2015,02,25,02,27,5.30
2015,02,25,02,28,5.30
2015,02,25,02,29,5.20
2015,02,25,02,30,5.20
2015,02,25,02,31,5.20
2015,02,25,02,32,5.20
2015,02,25,02,33,5.10
2015,02,25,02,34,5.10
2015,02,25,02,35,5.10
2015,02,25,02,36,5.10
2015,02,25,02,37,5.10
2015,02,25,02,38,5.00
2015,02,25,02,39,4.90
2015,02,25,02,40,4.90
2015,02,25,02,41,4.90
2015,02,25,02,42,4.90
2015,02,25,02,43,4.90
2015,02,25,02,44,4.90
2015,02,25,02,45,4.90
2015,02,25,02,46,4.90
2015,02,25,02,47,4.90
2015,02,25,02,48,4.90
2015,02,25,02,49,4.90
2015,02,25,02,50,4.90
2015,02,25,02,51,4.90
2015,02,25,02,52,4.90
2015,02,25,02,53,4.90
2015,02,25,02,54,4.90
2015,02,25,02,55,4.80
2015,02,25,02,56,4.80
2015,02,25,02,57,4.70
2015,02,25,02,58,4.60
2015,02,25,02,59,4.60
2015,02,25,03,00,4.60
2015,02,25,03,01,4.50
2015,02,25,03,02,4.50
2015,02,25,03,03,4.40
2015,02,25,03,04,4.40
2015,02,25,03,05,4.30
2015,02,25,03,06,4.20
2015,02,25,03,07,4.20
2015,02,25,03,08,4.20
2015,02,25,03,09,4.10
2015,02,25,03,10,4.10
2015,02,25,03,11,4.00
2015,02,25,03,12,4.00
2015,02,25,03,13,4.00
2015,02,25,03,14,4.00
2015,02,25,03,15,4.00
2015,02,25,03,16,4.00
2015,02,25,03,17,4.00
2015,02,25,03,18,4.00
2015,02,25,03,19,4.00
2015,02,25,03,20,4.00
2015,02,25,03,21,3.90
2015,02,25,03,22,3.90
2015,02,25,03,23,3.90
2015,02,25,03,24,4.00
2015,02,25,03,25,4.00
2015,02,25,03,26,4.00
2015,02,25,03,27,4.00
2015,02,25,03,28,4.10
2015,02,25,03,29,4.20
2015,02,25,03,30,4.20
2015,02,25,03,31,4.20
2015,02,25,03,32,4.20
2015,02,25,03,33,4.20
2015,02,25,03,34,4.20
2015,02,25,03,35,4.20
2015,02,25,03,36,4.20
2015,02,25,03,37,4.20
2015,02,25,03,38,4.20
2015,02,25,03,39,4.20
2015,02,25,03,40,4.30
2015,02,25,03,41,4.30
2015,02,25,03,42,4.30
2015,02,25,03,43,4.20
2015,02,25,03,44,4.20
2015,02,25,03,45,4.10
2015,02,25,03,46,4.00
2015,02,25,03,47,4.00
2015,02,25,03,48,3.90
2015,02,25,03,49,3.80
2015,02,25,03,50,3.80
2015,02,25,03,51,3.80
2015,02,25,03,52,3.70
2015,02,25,03,53,3.70
2015,02,25,03,54,3.70
2015,02,25,03,55,3.60
2015,02,25,03,56,3.60
2015,02,25,03,57,3.50
2015,02,25,03,58,3.50
2015,02,25,03,59,3.50
2015,02,25,04,00,3.50
2015,02,25,04,01,3.50
2015,02,25,04,02,3.50
2015,02,25,04,03,3.50
2015,02,25,04,04,3.50
2015,02,25,04,05,3.50
2015,02,25,04,06,3.50
2015,02,25,04,07,3.60
2015,02,25,04,08,3.60
2015,02,25,04,09,3.60
2015,02,25,04,10,3.60
2015,02,25,04,11,3.60
2015,02,25,04,12,3.60
2015,02,25,04,13,3.60
2015,02,25,04,14,3.50
2015,02,25,04,15,3.50
2015,02,25,04,16,3.60
2015,02,25,04,17,3.60
2015,02,25,04,18,3.70
2015,02,25,04,19,3.80
2015,02,25,04,20,3.80
2015,02,25,04,21,3.90
2015,02,25,04,22,4.00
2015,02,25,04,23,4.10
2015,02,25,04,24,4.10
2015,02,25,04,25,4.20
2015,02,25,04,26,4.30
2015,02,25,04,27,4.30
2015,02,25,04,28,4.40
2015,02,25,04,29,4.40
2015,02,25,04,30,4.50
2015,02,25,04,31,4.50
2015,02,25,04,32,4.60
2015,02,25,04,33,4.60
2015,02,25,04,34,4.60
2015,02,25,04,35,4.60
2015,02,25,04,36,4.60
2015,02,25,04,37,4.70
2015,02,25,04,38,4.70
2015,02,25,04,39,4.70
2015,02,25,04,40,4.70
2015,02,25,04,41,4.70
2015,02,25,04,42,4.70
2015,02,25,04,43,4.60
2015,02,25,04,44,4.60
2015,02,25,04,45,4.60
2015,02,25,04,46,4.60
2015,02,25,04,47,4.60
2015,02,25,04,48,4.60
2015,02,25,04,49,4.60
2015,02,25,04,50,4.60
2015,02,25,04,51,4.60
2015,02,25,04,52,4.60
2015,02,25,04,53,4.60
2015,02,25,04,54,4.60
2015,02,25,04,55,4.60
2015,02,25,04,56,4.60
2015,02,25,04,57,4.60
2015,02,25,04,58,4.60
2015,02,25,04,59,4.60
2015,02,25,05,00,4.60
2015,02,25,05,01,4.60
2015,02,25,05,02,4.60
2015,02,25,05,03,4.60
2015,02,25,05,04,4.60
2015,02,25,05,05,4.60
2015,02,25,05,06,4.60
2015,02,25,05,07,4.60
2015,02,25,05,08,4.60
2015,02,25,05,09,4.60
2015,02,25,05,10,4.60
2015,02,25,05,11,4.60
2015,02,25,05,12,4.60
2015,02,25,05,13,4.60
2015,02,25,05,14,4.60
2015,02,25,05,15,4.60
2015,02,25,05,16,4.60
2015,02,25,05,17,4.60
2015,02,25,05,18,4.60
2015,02,25,05,19,4.60
2015,02,25,05,20,4.60
2015,02,25,05,21,4.60
2015,02,25,05,22,4.60
2015,02,25,05,23,4.60
2015,02,25,05,24,4.60
2015,02,25,05,25,4.60
2015,02,25,05,26,4.60
2015,02,25,05,27,4.60
2015,02,25,05,28,4.70
2015,02,25,05,29,4.70
2015,02,25,05,30,4.80
2015,02,25,05,31,4.80
2015,02,25,05,32,4.90
2015,02,25,05,33,4.90
2015,02,25,05,34,4.90
2015,02,25,05,35,5.00
2015,02,25,05,36,5.10
2015,02,25,05,37,5.10
2015,02,25,05,38,5.10
2015,02,25,05,39,5.10
2015,02,25,05,40,5.10
2015,02,25,05,41,5.10
2015,02,25,05,42,5.10
2015,02,25,05,43,5.10
2015,02,25,05,44,5.10
2015,02,25,05,45,5.10
2015,02,25,05,46,5.10
2015,02,25,05,47,5.10
2015,02,25,05,48,5.10
2015,02,25,05,49,5.00
2015,02,25,05,50,4.90
2015,02,25,05,51,4.90
2015,02,25,05,52,4.80
2015,02,25,05,53,4.80
2015,02,25,05,54,4.80
2015,02,25,05,55,4.90
2015,02,25,05,56,4.90
2015,02,25,05,57,4.90
2015,02,25,05,58,4.90
2015,02,25,05,59,4.90
2015,02,25,06,00,4.90
2015,02,25,06,01,5.00
2015,02,25,06,02,5.10
2015,02,25,06,03,5.10
2015,02,25,06,04,5.10
2015,02,25,06,05,5.10
2015,02,25,06,06,5.10
2015,02,25,06,07,5.10
2015,02,25,06,08,5.10
2015,02,25,06,09,5.10
2015,02,25,06,10,5.10
2015,02,25,06,11,5.10
2015,02,25,06,12,5.10
2015,02,25,06,13,5.10
2015,02,25,06,14,5.10
2015,02,25,06,15,5.10
2015,02,25,06,16,5.10
2015,02,25,06,17,5.10
2015,02,25,06,18,5.20
2015,02,25,06,19,5.20
2015,02,25,06,20,5.20
2015,02,25,06,21,5.20
2015,02,25,06,22,5.20
2015,02,25,06,23,5.20
2015,02,25,06,24,5.30
2015,02,25,06,25,5.30
2015,02,25,06,26,5.30
2015,02,25,06,27,5.30
2015,02,25,06,28,5.30
2015,02,25,06,29,5.30
2015,02,25,06,30,5.30
2015,02,25,06,31,5.30
2015,02,25,06,32,5.30
2015,02,25,06,33,5.20
2015,02,25,06,34,5.20
2015,02,25,06,35,5.10
2015,02,25,06,36,5.10
2015,02,25,06,37,5.10
2015,02,25,06,38,5.10
2015,02,25,06,39,5.10
2015,02,25,06,40,5.10
2015,02,25,06,41,5.10
2015,02,25,06,42,5.00
2015,02,25,06,43,4.90
2015,02,25,06,44,4.80
2015,02,25,06,45,4.70
2015,02,25,06,46,4.70
2015,02,25,06,47,4.60
2015,02,25,06,48,4.60
2015,02,25,06,49,4.60
2015,02,25,06,50,4.60
2015,02,25,06,51,4.60
2015,02,25,06,52,4.60
2015,02,25,06,53,4.60
2015,02,25,06,54,4.60
2015,02,25,06,55,4.60
2015,02,25,06,56,4.70
2015,02,25,06,57,4.70
2015,02,25,06,58,4.80
2015,02,25,06,59,4.80
2015,02,25,07,00,4.80
2015,02,25,07,01,4.80
2015,02,25,07,02,4.90
2015,02,25,07,03,4.90
2015,02,25,07,04,4.90
2015,02,25,07,05,4.90
2015,02,25,07,06,4.90
2015,02,25,07,07,4.90
2015,02,25,07,08,4.90
2015,02,25,07,09,4.90
2015,02,25,07,10,4.90
2015,02,25,07,11,4.80
2015,02,25,07,12,4.80
2015,02,25,07,13,4.80
2015,02,25,07,14,4.80
2015,02,25,07,15,4.80
2015,02,25,07,16,4.80
2015,02,25,07,17,4.80
2015,02,25,07,18,4.80
2015,02,25,07,19,4.80
2015,02,25,07,20,4.80
2015,02,25,07,21,4.80
2015,02,25,07,22,4.80
2015,02,25,07,23,4.90
2015,02,25,07,24,4.90
2015,02,25,07,25,4.90
2015,02,25,07,26,4.90
2015,02,25,07,27,5.00
2015,02,25,07,28,5.10
2015,02,25,07,29,5.10
2015,02,25,07,30,5.10
2015,02,25,07,31,5.10
2015,02,25,07,32,5.10
2015,02,25,07,33,5.20
2015,02,25,07,34,5.20
2015,02,25,07,35,5.20
2015,02,25,07,36,5.30
2015,02,25,07,37,5.30
2015,02,25,07,38,5.30
2015,02,25,07,39,5.30
2015,02,25,07,40,5.30
2015,02,25,07,41,5.30
2015,02,25,07,42,5.30
2015,02,25,07,43,5.30
2015,02,25,07,44,5.30
2015,02,25,07,45,5.30
2015,02,25,07,46,5.30
2015,02,25,07,47,5.30
2015,02,25,07,48,5.30
2015,02,25,07,49,5.30
2015,02,25,07,50,5.30
2015,02,25,07,51,5.30
2015,02,25,07,52,5.30
2015,02,25,07,53,5.30
2015,02,25,07,54,5.30
2015,02,25,07,55,5.30
2015,02,25,07,56,5.30
2015,02,25,07,57,5.30
2015,02,25,07,58,5.30
2015,02,25,07,59,5.40
2015,02,25,08,00,5.40
2015,02,25,08,01,5.40
2015,02,25,08,02,5.50
2015,02,25,08,03,5.50
2015,02,25,08,04,5.50
2015,02,25,08,05,5.60
2015,02,25,08,06,5.60
2015,02,25,08,07,5.60
2015,02,25,08,08,5.60
2015,02,25,08,09,5.70
2015,02,25,08,10,5.70
2015,02,25,08,11,5.70
2015,02,25,08,12,5.70
2015,02,25,08,13,5.70
2015,02,25,08,14,5.70
2015,02,25,08,15,5.70
2015,02,25,08,16,5.70
2015,02,25,08,17,5.70
2015,02,25,08,18,5.70
2015,02,25,08,19,5.70
2015,02,25,08,20,5.70
2015,02,25,08,21,5.70
2015,02,25,08,22,5.70
2015,02,25,08,23,5.70
2015,02,25,08,24,5.70
2015,02,25,08,25,5.80
2015,02,25,08,26,5.80
2015,02,25,08,27,5.80
2015,02,25,08,28,5.80
2015,02,25,08,29,5.90
2015,02,25,08,30,5.90
2015,02,25,08,31,5.90
2015,02,25,08,32,5.90
2015,02,25,08,33,5.90
2015,02,25,08,34,6.00
2015,02,25,08,35,6.00
2015,02,25,08,36,6.00
2015,02,25,08,37,6.00
2015,02,25,08,38,6.00
2015,02,25,08,39,6.00
2015,02,25,08,40,6.10
2015,02,25,08,41,6.10
2015,02,25,08,42,6.10
2015,02,25,08,43,6.10
2015,02,25,08,44,6.20
2015,02,25,08,45,6.20
2015,02,25,08,46,6.20
2015,02,25,08,47,6.20
2015,02,25,08,48,6.20
2015,02,25,08,49,6.20
2015,02,25,08,50,6.30
2015,02,25,08,51,6.30
2015,02,25,08,52,6.30
2015,02,25,08,53,6.40
2015,02,25,08,54,6.40
2015,02,25,08,55,6.40
2015,02,25,08,56,6.40
2015,02,25,08,57,6.40
2015,02,25,08,58,6.40
2015,02,25,08,59,6.40
2015,02,25,09,00,6.40
2015,02,25,09,01,6.50
2015,02,25,09,02,6.60
2015,02,25,09,03,6.60
2015,02,25,09,04,6.60
2015,02,25,09,05,6.60
2015,02,25,09,06,6.60
2015,02,25,09,07,6.60
2015,02,25,09,08,6.60
2015,02,25,09,09,6.60
2015,02,25,09,10,6.60
2015,02,25,09,11,6.60
2015,02,25,09,12,6.70
2015,02,25,09,13,6.70
2015,02,25,09,14,6.70
2015,02,25,09,15,6.70
2015,02,25,09,16,6.80
2015,02,25,09,17,6.80
2015,02,25,09,18,6.80
2015,02,25,09,19,6.80
2015,02,25,09,20,6.80
2015,02,25,09,21,6.80
2015,02,25,09,22,6.90
2015,02,25,09,23,6.90
2015,02,25,09,24,6.90
2015,02,25,09,25,7.00
2015,02,25,09,26,7.00
2015,02,25,09,27,7.00
2015,02,25,09,28,7.00
2015,02,25,09,29,7.00
2015,02,25,09,30,7.00
2015,02,25,09,31,7.10
2015,02,25,09,32,7.10
2015,02,25,09,33,7.10
2015,02,25,09,34,7.20
2015,02,25,09,35,7.20
2015,02,25,09,36,7.20
2015,02,25,09,37,7.20
2015,02,25,09,38,7.20
2015,02,25,09,39,7.30
2015,02,25,09,40,7.30
2015,02,25,09,41,7.30
2015,02,25,09,42,7.30
2015,02,25,09,43,7.40
2015,02,25,09,44,7.50
2015,02,25,09,45,7.50
2015,02,25,09,46,7.60
2015,02,25,09,47,7.70
2015,02,25,09,48,7.80
2015,02,25,09,49,7.80
2015,02,25,09,50,7.80
2015,02,25,09,51,7.80
2015,02,25,09,52,7.80
2015,02,25,09,53,7.80
2015,02,25,09,54,7.80
2015,02,25,09,55,7.80
2015,02,25,09,56,7.80
2015,02,25,09,57,7.80
2015,02,25,09,58,7.80
2015,02,25,09,59,7.80
2015,02,25,10,00,7.80
2015,02,25,10,01,7.80
2015,02,25,10,02,7.80
2015,02,25,10,03,7.80
2015,02,25,10,04,7.80
2015,02,25,10,05,7.80
2015,02,25,10,06,7.90
2015,02,25,10,07,7.90
2015,02,25,10,08,7.90
2015,02,25,10,09,8.00
2015,02,25,10,10,8.00
2015,02,25,10,11,8.00
2015,02,25,10,12,8.00
2015,02,25,10,13,8.00
2015,02,25,10,14,8.00
2015,02,25,10,15,8.00
2015,02,25,10,16,8.00
2015,02,25,10,17,8.10
2015,02,25,10,18,8.10
2015,02,25,10,19,8.10
2015,02,25,10,20,8.10
2015,02,25,10,21,8.10
2015,02,25,10,22,8.10
2015,02,25,10,23,8.10
2015,02,25,10,24,8.10
2015,02,25,10,25,8.10
2015,02,25,10,26,8.10
2015,02,25,10,27,8.10
2015,02,25,10,28,8.10
2015,02,25,10,29,8.20
2015,02,25,10,30,8.10
2015,02,25,10,31,8.10
2015,02,25,10,32,8.10
2015,02,25,10,33,8.10
2015,02,25,10,34,8.10
2015,02,25,10,35,8.00
2015,02,25,10,36,8.00
2015,02,25,10,37,8.00
2015,02,25,10,38,8.00
2015,02,25,10,39,8.00
2015,02,25,10,40,8.00
2015,02,25,10,41,8.00
2015,02,25,10,42,8.00
2015,02,25,10,43,8.00
2015,02,25,10,44,8.00
2015,02,25,10,45,7.90
2015,02,25,10,46,7.90
2015,02,25,10,47,8.00
2015,02,25,10,48,8.00
2015,02,25,10,49,8.00
2015,02,25,10,50,8.00
2015,02,25,10,51,8.00
2015,02,25,10,52,8.00
2015,02,25,10,53,8.00
2015,02,25,10,54,7.90
2015,02,25,10,55,7.90
2015,02,25,10,56,7.90
2015,02,25,10,57,7.90
2015,02,25,10,58,7.90
2015,02,25,10,59,7.90
2015,02,25,11,00,7.90
2015,02,25,11,01,7.90
2015,02,25,11,02,7.90
2015,02,25,11,03,7.90
2015,02,25,11,04,7.90
2015,02,25,11,05,7.90
2015,02,25,11,06,7.90
2015,02,25,11,07,7.90
2015,02,25,11,08,8.00
2015,02,25,11,09,8.00
2015,02,25,11,10,8.00
2015,02,25,11,11,8.10
2015,02,25,11,12,8.10
2015,02,25,11,13,8.10
2015,02,25,11,14,8.20
2015,02,25,11,15,8.20
2015,02,25,11,16,8.20
2015,02,25,11,17,8.20
2015,02,25,11,18,8.10
2015,02,25,11,19,8.10
2015,02,25,11,20,8.10
2015,02,25,11,21,8.10
2015,02,25,11,22,8.10
2015,02,25,11,23,8.10
2015,02,25,11,24,8.10
2015,02,25,11,25,8.10
2015,02,25,11,26,8.10
2015,02,25,11,27,8.20
2015,02,25,11,28,8.20
2015,02,25,11,29,8.20
2015,02,25,11,30,8.20
2015,02,25,11,31,8.30
2015,02,25,11,32,8.30
2015,02,25,11,33,8.30
2015,02,25,11,34,8.30
2015,02,25,11,35,8.30
2015,02,25,11,36,8.30
2015,02,25,11,37,8.40
2015,02,25,11,38,8.40
2015,02,25,11,39,8.50
2015,02,25,11,40,8.50
2015,02,25,11,41,8.60
2015,02,25,11,42,8.60
2015,02,25,11,43,8.60
2015,02,25,11,44,8.70
2015,02,25,11,45,8.70
2015,02,25,11,46,8.70
2015,02,25,11,47,8.70
2015,02,25,11,48,8.70
2015,02,25,11,49,8.70
2015,02,25,11,50,8.70
2015,02,25,11,51,8.70
2015,02,25,11,52,8.80
2015,02,25,11,53,8.80
2015,02,25,11,54,8.80
2015,02,25,11,55,8.80
2015,02,25,11,56,8.90
2015,02,25,11,57,8.90
2015,02,25,11,58,8.90
2015,02,25,11,59,9.00
2015,02,25,12,00,9.00
2015,02,25,12,01,9.00
2015,02,25,12,02,9.00
2015,02,25,12,03,9.10
2015,02,25,12,04,9.10
2015,02,25,12,05,9.10
2015,02,25,12,06,9.10
2015,02,25,12,07,9.10
2015,02,25,12,08,9.10
2015,02,25,12,09,9.20
2015,02,25,12,10,9.20
2015,02,25,12,11,9.20
2015,02,25,12,12,9.20
2015,02,25,12,13,9.20
2015,02,25,12,14,9.30
2015,02,25,12,15,9.30
2015,02,25,12,16,9.30
2015,02,25,12,17,9.30
2015,02,25,12,18,9.20
2015,02,25,12,19,9.20
2015,02,25,12,20,9.20
2015,02,25,12,21,9.20
2015,02,25,12,22,9.20
2015,02,25,12,23,9.20
2015,02,25,12,24,9.20
2015,02,25,12,25,9.10
2015,02,25,12,26,9.10
2015,02,25,12,27,9.10
2015,02,25,12,28,9.10
2015,02,25,12,29,9.10
2015,02,25,12,30,9.10
2015,02,25,12,31,9.10
2015,02,25,12,32,9.10
2015,02,25,12,33,9.00
2015,02,25,12,34,9.00
2015,02,25,12,35,9.00
2015,02,25,12,36,9.00
2015,02,25,12,37,8.90
2015,02,25,12,38,9.00
2015,02,25,12,39,8.90
2015,02,25,12,40,8.90
2015,02,25,12,41,8.90
2015,02,25,12,42,8.90
2015,02,25,12,43,8.90
2015,02,25,12,44,8.90
2015,02,25,12,45,8.90
2015,02,25,12,46,8.90
2015,02,25,12,47,8.90
2015,02,25,12,48,8.80
2015,02,25,12,49,8.80
2015,02,25,12,50,8.80
2015,02,25,12,51,8.80
2015,02,25,12,52,8.70
2015,02,25,12,53,8.70
2015,02,25,12,54,8.70
2015,02,25,12,55,8.70
2015,02,25,12,56,8.70
2015,02,25,12,57,8.70
2015,02,25,12,58,8.70
2015,02,25,12,59,8.70
2015,02,25,13,00,8.70
2015,02,25,13,01,8.70
2015,02,25,13,02,8.70
2015,02,25,13,03,8.70
2015,02,25,13,04,8.70
2015,02,25,13,05,8.70
2015,02,25,13,06,8.70
2015,02,25,13,07,8.80
2015,02,25,13,08,8.80
2015,02,25,13,09,8.80
2015,02,25,13,10,8.80
2015,02,25,13,11,8.80
2015,02,25,13,12,8.80
2015,02,25,13,13,8.80
2015,02,25,13,14,8.80
2015,02,25,13,15,8.80
2015,02,25,13,16,8.80
2015,02,25,13,17,8.80
2015,02,25,13,18,8.80
2015,02,25,13,19,8.80
2015,02,25,13,20,8.70
2015,02,25,13,21,8.70
2015,02,25,13,22,8.70
2015,02,25,13,23,8.70
2015,02,25,13,24,8.70
2015,02,25,13,25,8.70
2015,02,25,13,26,8.70
2015,02,25,13,27,8.70
2015,02,25,13,28,8.70
2015,02,25,13,29,8.70
2015,02,25,13,30,8.70
2015,02,25,13,31,8.70
2015,02,25,13,32,8.70
2015,02,25,13,33,8.70
2015,02,25,13,34,8.70
2015,02,25,13,35,8.60
2015,02,25,13,36,8.50
2015,02,25,13,37,8.50
2015,02,25,13,38,8.40
2015,02,25,13,39,8.40
2015,02,25,13,40,8.50
2015,02,25,13,41,8.40
2015,02,25,13,42,8.40
2015,02,25,13,43,8.30
2015,02,25,13,44,8.40
2015,02,25,13,45,8.40
2015,02,25,13,46,8.40
2015,02,25,13,47,8.30
2015,02,25,13,48,8.30
2015,02,25,13,49,8.30
2015,02,25,13,50,8.30
2015,02,25,13,51,8.30
2015,02,25,13,52,8.20
2015,02,25,13,53,8.20
2015,02,25,13,54,8.20
2015,02,25,13,55,8.20
2015,02,25,13,56,8.20
2015,02,25,13,57,8.20
2015,02,25,13,58,8.20
2015,02,25,13,59,8.20
2015,02,25,14,00,8.20
2015,02,25,14,01,8.20
2015,02,25,14,02,8.20
2015,02,25,14,03,8.20
2015,02,25,14,04,8.20
2015,02,25,14,05,8.20
2015,02,25,14,06,8.20
2015,02,25,14,07,8.20
2015,02,25,14,08,8.20
2015,02,25,14,09,8.20
2015,02,25,14,10,8.20
2015,02,25,14,11,8.10
2015,02,25,14,12,8.10
2015,02,25,14,13,8.10
2015,02,25,14,14,8.10
2015,02,25,14,15,8.10
2015,02,25,14,16,8.10
2015,02,25,14,17,8.10
2015,02,25,14,18,8.10
2015,02,25,14,19,8.20
2015,02,25,14,20,8.20
2015,02,25,14,21,8.20
2015,02,25,14,22,8.20
2015,02,25,14,23,8.10
2015,02,25,14,24,8.10
2015,02,25,14,25,8.10
2015,02,25,14,26,8.10
2015,02,25,14,27,8.10
2015,02,25,14,28,8.10
2015,02,25,14,29,8.10
2015,02,25,14,30,8.10
2015,02,25,14,31,8.10
2015,02,25,14,32,8.10
2015,02,25,14,33,8.10
2015,02,25,14,34,8.20
2015,02,25,14,35,8.20
2015,02,25,14,36,8.20
2015,02,25,14,37,8.20
2015,02,25,14,38,8.20
2015,02,25,14,39,8.20
2015,02,25,14,40,8.20
2015,02,25,14,41,8.20
2015,02,25,14,42,8.20
2015,02,25,14,43,8.20
2015,02,25,14,44,8.20
2015,02,25,14,45,8.20
2015,02,25,14,46,8.20
2015,02,25,14,47,8.10
2015,02,25,14,48,8.10
2015,02,25,14,49,8.00
2015,02,25,14,50,8.00
2015,02,25,14,51,8.10
2015,02,25,14,52,8.10
2015,02,25,14,53,8.20
2015,02,25,14,54,8.20
2015,02,25,14,55,8.20
2015,02,25,14,56,8.10
2015,02,25,14,57,8.10
2015,02,25,14,58,8.10
2015,02,25,14,59,8.10
2015,02,25,15,00,8.10
2015,02,25,15,01,8.10
2015,02,25,15,02,8.10
2015,02,25,15,03,8.10
2015,02,25,15,04,8.10
2015,02,25,15,05,8.10
2015,02,25,15,06,8.10
2015,02,25,15,07,8.20
2015,02,25,15,08,8.10
2015,02,25,15,09,8.10
2015,02,25,15,10,8.10
2015,02,25,15,11,8.10
2015,02,25,15,12,8.10
2015,02,25,15,13,8.10
2015,02,25,15,14,8.10
2015,02,25,15,15,8.10
2015,02,25,15,16,8.00
2015,02,25,15,17,8.00
2015,02,25,15,18,8.10
2015,02,25,15,19,8.10
2015,02,25,15,20,8.10
2015,02,25,15,21,8.10
2015,02,25,15,22,8.10
2015,02,25,15,23,8.10
2015,02,25,15,24,8.00
2015,02,25,15,25,8.00
2015,02,25,15,26,8.00
2015,02,25,15,27,7.90
2015,02,25,15,28,8.00
2015,02,25,15,29,8.00
2015,02,25,15,30,8.00
2015,02,25,15,31,8.00
2015,02,25,15,32,8.00
2015,02,25,15,33,8.00
2015,02,25,15,34,8.10
2015,02,25,15,35,8.10
2015,02,25,15,36,8.10
2015,02,25,15,37,8.10
2015,02,25,15,38,8.10
2015,02,25,15,39,8.20
2015,02,25,15,40,8.20
2015,02,25,15,41,8.20
2015,02,25,15,42,8.20
2015,02,25,15,43,8.20
2015,02,25,15,44,8.20
2015,02,25,15,45,8.20
2015,02,25,15,46,8.20
2015,02,25,15,47,8.20
2015,02,25,15,48,8.20
2015,02,25,15,49,8.20
2015,02,25,15,50,8.20
2015,02,25,15,51,8.20
2015,02,25,15,52,8.20
2015,02,25,15,53,8.10
2015,02,25,15,54,8.10
2015,02,25,15,55,8.10
2015,02,25,15,56,8.10
2015,02,25,15,57,8.10
2015,02,25,15,58,8.10
2015,02,25,15,59,8.10
2015,02,25,16,00,8.10
2015,02,25,16,01,8.10
2015,02,25,16,02,8.10
2015,02,25,16,03,8.10
2015,02,25,16,04,8.10
2015,02,25,16,05,8.20
2015,02,25,16,06,8.20
2015,02,25,16,07,8.20
2015,02,25,16,08,8.20
2015,02,25,16,09,8.20
2015,02,25,16,10,8.20
2015,02,25,16,11,8.20
2015,02,25,16,12,8.10
2015,02,25,16,13,8.10
2015,02,25,16,14,8.00
2015,02,25,16,15,8.00
2015,02,25,16,16,8.10
2015,02,25,16,17,8.10
2015,02,25,16,18,8.10
2015,02,25,16,19,8.10
2015,02,25,16,20,8.10
2015,02,25,16,21,8.10
2015,02,25,16,22,8.10
2015,02,25,16,23,8.10
2015,02,25,16,24,8.20
2015,02,25,16,25,8.20
2015,02,25,16,26,8.20
2015,02,25,16,27,8.10
2015,02,25,16,28,8.10
2015,02,25,16,29,8.10
2015,02,25,16,30,8.10
2015,02,25,16,31,8.00
2015,02,25,16,32,8.00
2015,02,25,16,33,8.00
2015,02,25,16,34,8.10
2015,02,25,16,35,8.10
2015,02,25,16,36,8.10
2015,02,25,16,37,8.10
2015,02,25,16,38,8.10
2015,02,25,16,39,8.10
2015,02,25,16,40,8.00
2015,02,25,16,41,8.00
2015,02,25,16,42,8.00
2015,02,25,16,43,8.00
2015,02,25,16,44,8.00
2015,02,25,16,45,8.00
2015,02,25,16,46,8.00
2015,02,25,16,47,8.00
2015,02,25,16,48,8.00
2015,02,25,16,49,8.00
2015,02,25,16,50,8.00
2015,02,25,16,51,8.00
2015,02,25,16,52,8.00
2015,02,25,16,53,8.00
2015,02,25,16,54,8.00
2015,02,25,16,55,8.00
2015,02,25,16,56,8.00
2015,02,25,16,57,8.00
2015,02,25,16,58,8.00
2015,02,25,16,59,8.00
2015,02,25,17,00,8.00
2015,02,25,17,01,8.00
2015,02,25,17,02,8.00
2015,02,25,17,03,8.10
2015,02,25,17,04,8.00
2015,02,25,17,05,8.00
2015,02,25,17,06,8.00
2015,02,25,17,07,8.00
2015,02,25,17,08,8.00
2015,02,25,17,09,7.90
2015,02,25,17,10,7.90
2015,02,25,17,11,7.90
2015,02,25,17,12,8.00
2015,02,25,17,13,8.00
2015,02,25,17,14,8.00
2015,02,25,17,15,7.90
2015,02,25,17,16,8.00
2015,02,25,17,17,8.00
2015,02,25,17,18,8.00
2015,02,25,17,19,8.00
2015,02,25,17,20,8.00
2015,02,25,17,21,8.00
2015,02,25,17,22,8.00
2015,02,25,17,23,8.00
2015,02,25,17,24,8.00
2015,02,25,17,25,8.00
2015,02,25,17,26,8.00
2015,02,25,17,27,8.10
2015,02,25,17,28,8.10
2015,02,25,17,29,8.10
2015,02,25,17,30,8.10
2015,02,25,17,31,8.10
2015,02,25,17,32,8.10
2015,02,25,17,33,8.10
2015,02,25,17,34,8.10
2015,02,25,17,35,8.00
2015,02,25,17,36,8.10
2015,02,25,17,37,8.10
2015,02,25,17,38,8.00
2015,02,25,17,39,8.00
2015,02,25,17,40,8.00
2015,02,25,17,41,8.00
2015,02,25,17,42,8.00
2015,02,25,17,43,8.00
2015,02,25,17,44,8.00
2015,02,25,17,45,8.00
2015,02,25,17,46,8.00
2015,02,25,17,47,8.00
2015,02,25,17,48,8.00
2015,02,25,17,49,8.00
2015,02,25,17,50,8.00
2015,02,25,17,51,8.00
2015,02,25,17,52,8.00
2015,02,25,17,53,8.00
2015,02,25,17,54,8.00
2015,02,25,17,55,8.00
2015,02,25,17,56,8.00
2015,02,25,17,57,8.00
2015,02,25,17,58,8.00
2015,02,25,17,59,8.00
2015,02,25,18,00,8.00
2015,02,25,18,01,8.00
2015,02,25,18,02,8.00
2015,02,25,18,03,8.00
2015,02,25,18,04,8.00
2015,02,25,18,05,8.00
2015,02,25,18,06,8.00